Sexton Summit, OR

8:39 PM PDT on October 20, 2019 (GMT -0700)
Sexton Summit

Weather History for KSXT - August, 2019

Change the Weather History Date:

Friday, August 9, 2019

  Actual Average Record
Temperature  
Mean Temperature 57 °F -  
Max Temperature 66 °F 76 °F 91 °F (1996)
Min Temperature 48 °F 53 °F 46 °F (2011)
Degree Days  
Heating Degree Days 8    
Growing Degree Days 7 (Base 50)    
Moisture  
Dew Point 50 °F    
Average Humidity 87    
Maximum Humidity 100    
Minimum Humidity 52    
Precipitation  
Precipitation 0.05 in - - ()
Sea Level Pressure  
Sea Level Pressure 29.95 in    
Wind  
Wind Speed 5 mph (NNW)    
Max Wind Speed 13 mph    
Max Gust Speed 21 mph    
Visibility 7 miles    
Events Fog , Rain    
Averages and records for this station are not official NWS values.
T = Trace of Precipitation, MM = Missing Value Source: NWS Daily Summary

Daily Weather History Graph

Daily Weather History Graph

Search for Another Location

Airport or City:

Astronomy

Aug. 09, 2019 Rise Set
Actual Time 6:13 AM PDT 8:23 PM PDT
Civil Twilight 5:42 AM PDT 8:54 PM PDT
Nautical Twilight 5:04 AM PDT 9:32 PM PDT
Astronomical Twilight 4:21 AM PDT 10:14 PM PDT
Moon 4:12 PM PDT (8/9) 1:13 AM PDT (8/9)
Length of Visible Light 15h 12m
Length of Day
14h 10m
Waxing Gibbous, 71% of the Moon is Illuminated
Aug 9
Waxing Gibbous
Aug 15
Full
Aug 23
Last Quarter
Aug 30
New
Sep 5
First Quarter

Hourly Weather History & Observations

Time (PDT) Temp. Dew Point Humidity Pressure Visibility Wind Dir Wind Speed Gust Speed Precip Events Conditions
12:56 AM 51.1 °F 48.9 °F 92% 29.95 in 10.0 mi NNW 4.6 mph - N/A   Partly Cloudy
1:56 AM 52.0 °F 48.9 °F 89% 29.92 in 10.0 mi South 3.5 mph - N/A   Clear
2:56 AM 50.0 °F 48.9 °F 96% 29.91 in 10.0 mi NNW 4.6 mph - N/A   Clear
3:56 AM 48.9 °F 48.0 °F 97% 29.90 in 10.0 mi NNW 5.8 mph - N/A   Clear
4:24 AM 48.9 °F 48.0 °F 97% 29.99 in 10.0 mi NNW 6.9 mph - N/A   Partly Cloudy
4:56 AM 48.9 °F 48.0 °F 97% 29.90 in 9.0 mi NNW 6.9 mph - N/A   Mostly Cloudy
5:20 AM 48.9 °F 48.0 °F 97% 29.99 in 0.8 mi NNW 6.9 mph - N/A   Mist
5:29 AM 48.9 °F 48.0 °F 97% 29.99 in 0.2 mi North 5.8 mph - N/A Fog Fog
5:39 AM 48.9 °F 48.0 °F 97% 29.99 in 0.5 mi NNW 6.9 mph - N/A Fog Fog
5:46 AM 48.9 °F 48.0 °F 97% 29.99 in 0.2 mi NNW 4.6 mph - N/A Fog Fog
5:53 AM 48.2 °F 48.2 °F 100% 29.99 in 4.0 mi North 5.8 mph - N/A   Mostly Cloudy
5:56 AM 48.9 °F 48.0 °F 97% 29.90 in 8.0 mi NNW 4.6 mph - N/A   Scattered Clouds
6:58 AM 48.9 °F 48.0 °F 97% 29.99 in 0.8 mi North 5.8 mph - N/A   Mist
7:10 AM 50.0 °F 48.9 °F 96% 30.00 in 3.0 mi Calm Calm - N/A   Scattered Clouds
7:31 AM 50.0 °F 48.9 °F 96% 30.00 in 0.2 mi North 3.5 mph - N/A Fog Fog
7:45 AM 50.0 °F 48.9 °F 96% 29.99 in 0.2 mi NNW 4.6 mph - N/A Fog Fog
7:56 AM 50.0 °F 50.0 °F 100% 29.93 in 0.2 mi Calm Calm - N/A Fog Fog
8:10 AM 52.0 °F 51.1 °F 97% 30.00 in 4.0 mi SE 3.5 mph - N/A   Mostly Cloudy
8:18 AM 52.0 °F 50.0 °F 93% 30.00 in 10.0 mi Variable 3.5 mph - N/A   Scattered Clouds
8:56 AM 57.0 °F 51.1 °F 81% 29.91 in 10.0 mi Variable 3.5 mph - N/A   Clear
9:56 AM 57.9 °F 51.1 °F 78% 29.93 in 10.0 mi Variable 4.6 mph - N/A   Scattered Clouds
10:05 AM 57.9 °F 51.1 °F 78% 30.00 in 10.0 mi Variable 4.6 mph - N/A   Mostly Cloudy
10:30 AM 60.1 °F 52.0 °F 75% 30.00 in 10.0 mi Variable 3.5 mph - N/A   Scattered Clouds
10:56 AM 60.1 °F 52.0 °F 75% 29.91 in 10.0 mi Variable 4.6 mph - N/A   Partly Cloudy
11:56 AM 63.0 °F 53.1 °F 70% 29.91 in 10.0 mi Calm Calm - N/A   Clear
12:56 PM 64.9 °F 52.0 °F 63% 29.91 in 10.0 mi Variable 4.6 mph - N/A   Clear
1:56 PM 66.0 °F 48.0 °F 52% 29.90 in 10.0 mi Variable 3.5 mph - N/A   Clear
2:56 PM 60.1 °F 50.0 °F 69% 29.96 in 7.0 mi South 12.7 mph 20.7 mph 0.00 in Rain Light Rain
3:56 PM 59.0 °F 48.9 °F 69% 29.96 in 10.0 mi WSW 3.5 mph - 0.05 in   Overcast
4:56 PM 55.9 °F 53.1 °F 90% 29.94 in 10.0 mi NNW 5.8 mph - N/A   Partly Cloudy
5:56 PM 57.9 °F 53.1 °F 84% 29.95 in 10.0 mi North 9.2 mph - N/A   Clear
6:56 PM 57.9 °F 54.0 °F 87% 29.94 in 10.0 mi NNW 5.8 mph - N/A   Clear
7:56 PM 57.9 °F 48.0 °F 70% 29.94 in 10.0 mi NW 4.6 mph - N/A   Clear
8:56 PM 57.0 °F 52.0 °F 83% 29.93 in 10.0 mi SSE 4.6 mph - 0.00 in   Overcast
9:56 PM 57.0 °F 53.1 °F 87% 29.94 in 10.0 mi SSW 5.8 mph - 0.00 in Rain Light Rain
11:56 PM 55.9 °F 52.0 °F 87% 29.91 in 10.0 mi Calm Calm - N/A   Mostly Cloudy